CAPE
0 0 0 0 0 0 0 0 0 0 0 0 0 0 12 14 0 4 47 97 126 119 58 160 72 4 0 0 0 0 0 0
0 0 0 0 0 0 0 0 0 0 0 0 0 0 0 0 0 0 28 89 68 194 180 148 55 3 0 0 0 0 0 0
0 0 0 0 0 0 0 0 0 0 0 0 0 0 0 0 0 0 0 58 145 241 193 131 62 0 0 0 0 0 0 0
0 0 0 0 0 0 0 0 0 0 0 0 0 0 0 0 0 0 76 198 191 181 193 145 58 2 0 0 0 0 0 0
0 0 0 0 0 0 0 0 0 0 0 0 0 0 0 0 0 0 0 159 168 232 235 168 86 43 2 0 0 0 0 0
9 0 0 0 0 0 0 0 0 0 0 0 0 0 0 0 0 0 0 78 125 214 190 216 110 30 0 0 0 0 0 0
98 18 0 0 0 0 0 0 0 0 0 0 2 55 0 0 0 0 11 151 178 186 181 145 75 29 5 0 0 0 0 0
165 93 70 20 1 50 9 6 21 24 19 23 44 79 130 13 0 0 1 83 194 218 191 90 43 5 0 1 0 0 0 0
236 189 153 128 85 75 58 24 43 55 51 93 123 125 197 120 22 16 67 98 135 188 102 86 31 9 0 0 0 0 0 0
265 263 168 123 186 103 128 67 12 73 64 126 221 232 145 216 204 132 148 153 174 165 87 48 0 0 0 0 0 0 0 0
95 394 316 177 130 124 46 112 144 103 155 134 139 275 195 185 322 319 118 92 74 101 33 0 0 0 0 0 0 0 0 0
81 111 237 410 354 170 121 106 179 249 206 208 208 222 331 256 261 247 187 90 35 0 2 0 0 0 0 0 0 0 0 0
129 200 218 176 433 483 526 410 246 251 206 142 112 82 100 18 49 133 112 252 67 1 0 0 0 0 0 0 0 0 0 0
188 219 401 383 604 641 801 828 694 564 365 195 227 267 20 37 21 164 100 0 0 0 0 0 0 0 0 0 0 0 0 0
150 222 321 497 586 1037 1221 1199 1112 520 388 387 354 159 38 0 0 0 0 0 0 0 0 0 0 0 0 0 0 0 0 0
156 307 449 671 829 934 620 667 664 557 503 357 84 2 1 1 0 1 1 1 1 1 0 0 0 0 0 0 0 0 0 0
83 334 658 828 981 823 484 186 39 9 94 6 0 2 2 1 0 0 0 0 0 0 0 0 0 0 0 0 0 0 0 0
0 307 766 899 998 765 606 209 1 0 0 0 0 0 0 0 0 0 0 0 0 0 0 0 0 0 0 0 0 0 0 0
13 205 676 871 795 654 300 19 0 0 0 0 0 0 0 0 0 0 0 0 0 0 0 0 0 0 0 0 0 0 0 0
CIN
0 0 0 0 -1 0 0 0 0 0 0 0 0 0 -30 -15 0 -21 -53 -40 -25 -23 -32 -18 -31 -57 0 0 0 0 0 0
0 0 0 0 0 0 0 0 0 0 0 0 0 0 0 0 0 -1 -37 -28 -28 -16 -23 -20 -38 -49 0 0 0 0 0 0
0 0 0 0 0 0 0 0 0 0 0 0 0 0 0 0 0 0 0 -33 -26 -20 -32 -30 -46 0 0 0 0 0 0 0
0 0 0 0 0 0 0 0 0 0 0 0 0 0 0 0 0 0 -19 -12 -23 -27 -28 -31 -53 -27 0 0 0 0 0 0
0 0 0 0 0 0 0 0 0 0 0 0 0 0 0 0 0 0 -3 -25 -26 -26 -37 -31 -54 -81 -50 0 0 0 0 0
-205 0 0 0 0 0 0 0 0 0 0 0 0 0 0 0 0 0 -2 -48 -40 -30 -53 -46 -54 -89 0 0 0 0 0 0
-311 -343 -143 0 0 0 0 0 0 0 0 0 -32 -85 0 0 0 0 -113 -52 -57 -53 -39 -48 -65 -100 -132 0 0 0 0 0
-272 -314 -350 -379 -335 -357 -320 -197 -259 -263 -252 -194 -175 -127 -82 -133 0 0 -12 -47 -46 -68 -70 -94 -125 -161 -41 -72 0 0 0 0
-214 -274 -318 -331 -321 -312 -303 -250 -204 -207 -224 -182 -162 -115 -98 -78 -160 -121 -93 -73 -64 -85 -107 -128 -143 -151 0 0 0 0 0 0
-128 -214 -271 -310 -335 -328 -315 -277 -236 -194 -194 -186 -123 -96 -108 -112 -93 -110 -69 -64 -60 -78 -127 -185 -37 0 0 0 0 0 0 0
-101 -121 -184 -227 -312 -356 -355 -297 -279 -265 -214 -190 -155 -102 -93 -93 -82 -73 -116 -158 -125 -126 -209 0 0 0 0 0 0 0 0 0
-64 -74 -107 -137 -197 -271 -340 -348 -273 -237 -203 -184 -155 -165 -92 -64 -66 -81 -106 -174 -203 0 -250 0 0 0 0 0 0 0 0 0
-105 -69 -66 -92 -124 -159 -209 -255 -251 -247 -223 -208 -131 -119 -102 -51 -37 -79 -153 -106 -183 -12 0 0 0 0 0 0 0 0 0 0
-105 -83 -89 -82 -93 -115 -140 -173 -147 -134 -76 -123 -168 -99 -203 -83 -70 -128 -183 0 0 0 0 0 0 0 0 0 0 0 0 0
-100 -83 -80 -96 -98 -85 -91 -112 -97 -168 -145 -142 -185 -221 -277 0 0 0 0 0 0 0 0 0 0 0 0 0 0 0 0 0
-59 -79 -95 -90 -111 -145 -252 -237 -230 -241 -221 -272 -338 0 0 0 0 0 0 0 0 0 0 0 0 0 0 0 0 0 0 0
-50 -52 -67 -68 -120 -214 -305 -398 -434 -369 -386 -286 0 0 0 0 0 0 0 0 0 0 0 0 0 0 0 0 0 0 0 0
0 -50 -53 -79 -115 -198 -271 -364 -73 0 0 0 0 0 0 0 0 0 0 0 0 0 0 0 0 0 0 0 0 0 0 0
-41 -81 -106 -123 -151 -180 -293 -181 0 0 0 0 0 0 0 0 0 0 0 0 0 0 0 0 0 0 0 0 0 0 0 0
Wind_Speed
20 22 26 28 28 28 30 32 31 24 13 21 22 17 24 18 33 35 35 35 33 31 30 29 5 4 6 7 6 5 10 6
20 23 24 27 26 28 30 32 33 34 33 37 39 38 39 37 36 34 34 32 30 29 28 27 2 5 1 1 4 5 8 10
19 21 23 25 26 27 30 31 32 34 34 33 33 34 34 34 33 33 32 30 28 25 26 26 14 8 2 3 3 8 8 8
18 21 23 23 25 27 29 30 31 32 32 31 30 29 30 31 31 32 29 25 24 24 27 23 12 9 5 5 4 5 8 9
18 20 22 24 24 25 27 26 28 30 29 27 26 25 26 26 26 29 30 27 24 23 21 16 9 8 6 6 5 7 9 9
19 20 23 23 23 24 25 25 25 27 27 26 25 23 23 21 21 22 24 25 22 18 15 13 9 8 6 6 8 8 10 13
19 20 20 23 20 22 23 23 23 26 26 26 24 21 20 18 17 17 15 9 13 13 11 7 7 7 7 7 9 10 11 12
19 18 18 20 22 22 24 23 22 24 24 24 23 20 21 20 18 15 11 10 8 10 9 8 6 7 7 10 12 13 14 11
21 21 18 19 22 22 22 23 21 24 22 22 21 21 20 16 16 10 9 11 12 12 13 9 8 6 7 7 10 12 15 15
19 19 20 20 20 22 22 23 24 23 24 18 22 25 17 14 15 18 10 7 8 11 10 9 6 5 6 8 11 13 13 14
12 17 20 20 21 22 22 22 23 25 22 22 20 19 17 12 10 7 6 6 8 7 6 7 5 8 10 11 12 12 11 14
5 4 16 22 22 22 22 23 18 17 18 17 19 16 14 14 9 5 4 5 6 8 7 7 9 10 11 13 12 11 12 14
7 9 8 4 24 26 22 18 18 16 17 12 12 17 19 27 19 6 6 8 8 8 8 9 11 11 11 11 11 11 11 14
8 9 10 10 4 16 17 16 11 10 16 10 7 12 8 7 5 5 6 6 8 9 10 11 11 11 11 12 13 12 13 13
5 6 7 9 9 2 5 6 8 7 5 4 3 2 2 2 3 5 8 9 10 12 13 12 13 13 13 13 12 13 13 14
3 4 2 6 8 7 5 4 5 5 4 4 2 2 3 4 7 8 9 10 12 12 12 14 14 13 13 13 13 13 13 16
7 7 4 6 5 7 8 7 5 3 2 2 3 4 5 8 8 9 11 12 11 11 13 13 13 14 12 12 12 14 16 18
6 5 3 2 3 4 6 6 6 6 5 5 5 5 6 7 7 8 9 9 10 12 12 12 13 13 11 13 14 16 18 20
7 5 4 3 3 4 5 5 6 6 7 6 5 4 5 5 7 6 7 8 10 11 12 12 13 13 13 14 15 17 20 23
Wind_Direction
106 107 114 119 120 124 126 127 127 124 111 125 132 139 204 209 200 198 204 200 199 198 197 202 296 312 309 325 343 8 345 357
111 116 117 124 122 123 131 134 137 140 142 149 155 170 179 185 189 197 195 188 190 190 192 192 274 157 168 140 355 347 337 344
119 122 125 127 125 126 132 137 139 144 145 147 155 160 173 186 198 197 193 190 187 182 190 193 173 171 210 198 298 327 331 331
125 132 136 134 136 136 137 140 141 145 150 154 157 167 181 188 193 193 189 181 182 186 194 188 182 187 209 216 244 294 306 315
139 140 144 146 146 145 147 146 147 154 155 156 159 164 170 177 180 190 192 186 186 185 187 185 192 207 224 238 258 290 306 290
149 151 153 153 153 155 155 155 157 164 166 166 167 170 173 173 176 180 185 191 186 184 185 190 201 211 233 258 283 281 289 310
158 158 156 161 158 164 164 164 167 170 173 176 176 174 176 175 177 182 183 192 188 189 196 217 239 248 244 270 288 287 285 299
166 164 164 167 170 170 173 173 175 177 179 180 182 182 184 187 187 187 192 199 217 224 232 241 254 264 271 291 299 303 305 289
173 175 174 174 177 178 181 183 183 185 185 187 188 187 187 185 191 194 211 201 201 210 215 243 237 257 288 294 309 311 317 305
185 184 182 180 182 184 186 188 192 192 194 193 194 194 194 191 184 184 194 199 211 226 245 246 261 291 308 307 310 312 317 317
193 194 193 194 192 193 193 194 195 199 200 203 205 203 206 207 195 210 270 289 276 274 275 299 299 309 316 317 316 315 313 324
3 231 206 198 198 201 199 199 204 205 208 217 218 229 231 261 263 247 274 293 306 310 321 320 316 318 319 318 317 317 317 318
347 320 321 204 203 203 201 207 210 219 215 252 246 251 281 274 225 261 276 300 310 319 326 327 327 324 323 320 318 318 317 320
335 336 331 321 230 202 205 206 218 215 279 207 217 215 224 263 259 293 313 320 324 325 327 327 330 329 327 328 326 327 327 327
317 340 345 335 334 319 230 241 217 248 275 301 306 248 265 300 331 328 329 332 329 326 327 329 330 332 332 333 335 332 330 332
259 304 48 348 339 340 344 279 270 276 289 295 310 343 353 348 342 337 339 336 333 333 334 336 338 337 336 334 335 337 338 334
251 268 274 290 308 326 318 317 317 302 291 306 337 336 337 339 341 337 333 332 337 338 338 339 339 338 345 347 347 340 335 333
295 263 254 234 268 301 303 302 319 321 315 314 314 317 325 336 341 339 340 343 344 342 344 345 344 347 348 346 342 338 335 335
293 276 253 233 268 302 312 302 299 300 302 300 300 309 322 338 342 345 347 347 345 344 343 343 343 343 344 344 345 343 339 338